owner,sensor,date,latitude,longitude,sea_water_turbidity,qcFlag 
SCCF RECON,ioos:station:SCCF:13:1,2008-01-16T18:00:00Z,26.5255,-82.0032,2.59,1111122 
SCCF RECON,ioos:station:SCCF:13:1,2008-01-16T19:00:00Z,26.5255,-82.0032,2.49,1111122 
SCCF RECON,ioos:station:SCCF:13:1,2008-01-16T20:00:00Z,26.5255,-82.0032,2.98,1111122 
SCCF RECON,ioos:station:SCCF:13:1,2008-01-16T21:00:00Z,26.5255,-82.0032,2.42,1111122 
SCCF RECON,ioos:station:SCCF:13:1,2008-01-16T22:00:00Z,26.5255,-82.0032,2.57,1111122 
SCCF RECON,ioos:station:SCCF:13:1,2008-01-16T23:00:00Z,26.5255,-82.0032,3.14,1111122 
SCCF RECON,ioos:station:SCCF:13:1,2008-01-17T00:00:00Z,26.5255,-82.0032,3.1,1111122 
SCCF RECON,ioos:station:SCCF:13:1,2008-01-17T01:00:00Z,26.5255,-82.0032,2.74,1111122 
SCCF RECON,ioos:station:SCCF:13:1,2008-01-17T03:00:00Z,26.5255,-82.0032,3.01,1111122 
SCCF RECON,ioos:station:SCCF:13:1,2008-01-17T04:00:00Z,26.5255,-82.0032,2.71,1111122 
SCCF RECON,ioos:station:SCCF:13:1,2008-01-17T05:00:00Z,26.5255,-82.0032,2.65,1111122 
SCCF RECON,ioos:station:SCCF:13:1,2008-01-17T06:00:00Z,26.5255,-82.0032,3.12,1111122 
SCCF RECON,ioos:station:SCCF:13:1,2008-01-17T07:00:00Z,26.5255,-82.0032,2.86,1111122 
SCCF RECON,ioos:station:SCCF:13:1,2008-01-17T08:00:00Z,26.5255,-82.0032,2.79,1111122 
SCCF RECON,ioos:station:SCCF:13:1,2008-01-17T09:00:00Z,26.5255,-82.0032,2.74,1111122 
SCCF RECON,ioos:station:SCCF:13:1,2008-01-17T11:00:00Z,26.5255,-82.0032,2.87,1111122 
SCCF RECON,ioos:station:SCCF:13:1,2008-01-17T12:00:00Z,26.5255,-82.0032,2.78,1111122 
SCCF RECON,ioos:station:SCCF:13:1,2008-01-17T13:00:00Z,26.5255,-82.0032,2.77,1111122 
SCCF RECON,ioos:station:SCCF:13:1,2008-01-17T14:00:00Z,26.5255,-82.0032,2.85,1111122 
SCCF RECON,ioos:station:SCCF:13:1,2008-01-17T15:00:00Z,26.5255,-82.0032,3.31,1111122 
SCCF RECON,ioos:station:SCCF:13:1,2008-01-17T16:00:00Z,26.5255,-82.0032,4.16,1111122 
SCCF RECON,ioos:station:SCCF:13:1,2008-01-17T17:00:00Z,26.5255,-82.0032,3.79,1111122 
SCCF RECON,ioos:station:SCCF:13:1,2008-01-17T18:00:00Z,26.5255,-82.0032,4.58,1111122 
SCCF RECON,ioos:station:SCCF:13:1,2008-01-17T19:00:00Z,26.5255,-82.0032,4.58,1111122 
SCCF RECON,ioos:station:SCCF:13:1,2008-01-17T20:00:00Z,26.5255,-82.0032,4.25,1111122 
SCCF RECON,ioos:station:SCCF:13:1,2008-01-17T21:00:00Z,26.5255,-82.0032,3.89,1111122 
SCCF RECON,ioos:station:SCCF:13:1,2008-01-17T22:00:00Z,26.5255,-82.0032,3.88,1111122 
SCCF RECON,ioos:station:SCCF:13:1,2008-01-17T23:00:00Z,26.5255,-82.0032,4.19,1111122 
SCCF RECON,ioos:station:SCCF:13:1,2008-01-18T00:00:00Z,26.5255,-82.0032,3.17,1111122 
SCCF RECON,ioos:station:SCCF:13:1,2008-01-18T01:00:00Z,26.5255,-82.0032,3.73,1111122 
SCCF RECON,ioos:station:SCCF:13:1,2008-01-18T02:00:00Z,26.5255,-82.0032,3.68,1111122 
SCCF RECON,ioos:station:SCCF:13:1,2008-01-18T03:00:00Z,26.5255,-82.0032,3.33,1111122 
SCCF RECON,ioos:station:SCCF:13:1,2008-01-18T04:00:00Z,26.5255,-82.0032,3.03,1111122 
SCCF RECON,ioos:station:SCCF:13:1,2008-01-18T05:00:00Z,26.5255,-82.0032,3.28,1111122 
SCCF RECON,ioos:station:SCCF:13:1,2008-01-18T06:00:00Z,26.5255,-82.0032,3.41,1111122 
SCCF RECON,ioos:station:SCCF:13:1,2008-01-18T07:00:00Z,26.5255,-82.0032,3.59,1111122 
SCCF RECON,ioos:station:SCCF:13:1,2008-01-18T08:00:00Z,26.5255,-82.0032,3.7,1111122 
SCCF RECON,ioos:station:SCCF:13:1,2008-01-18T09:00:00Z,26.5255,-82.0032,3.47,1111122 
SCCF RECON,ioos:station:SCCF:13:1,2008-01-18T10:00:00Z,26.5255,-82.0032,3.29,1111122 
SCCF RECON,ioos:station:SCCF:13:1,2008-01-18T11:00:00Z,26.5255,-82.0032,3.02,1111122 
SCCF RECON,ioos:station:SCCF:13:1,2008-01-18T12:00:00Z,26.5255,-82.0032,2.83,1111122 
SCCF RECON,ioos:station:SCCF:13:1,2008-01-18T13:00:00Z,26.5255,-82.0032,2.78,1111122 
SCCF RECON,ioos:station:SCCF:13:1,2008-01-18T14:00:00Z,26.5255,-82.0032,2.76,1111122 
SCCF RECON,ioos:station:SCCF:13:1,2008-01-18T15:00:00Z,26.5255,-82.0032,2.91,1111122 
SCCF RECON,ioos:station:SCCF:13:1,2008-01-18T16:00:00Z,26.5255,-82.0032,2.96,1111122 
SCCF RECON,ioos:station:SCCF:13:1,2008-01-18T17:00:00Z,26.5255,-82.0032,3.02,1111122 
SCCF RECON,ioos:station:SCCF:13:1,2008-01-18T18:00:00Z,26.5255,-82.0032,3.33,1111122 
SCCF RECON,ioos:station:SCCF:13:1,2008-01-18T19:00:00Z,26.5255,-82.0032,3.43,1111122 
SCCF RECON,ioos:station:SCCF:13:1,2008-01-18T20:00:00Z,26.5255,-82.0032,3.27,1111122 
SCCF RECON,ioos:station:SCCF:13:1,2008-01-18T21:00:00Z,26.5255,-82.0032,3.31,1111122 
SCCF RECON,ioos:station:SCCF:13:1,2008-01-18T22:00:00Z,26.5255,-82.0032,3.5,1111122 
SCCF RECON,ioos:station:SCCF:13:1,2008-01-18T23:00:00Z,26.5255,-82.0032,3.21,1111122 
SCCF RECON,ioos:station:SCCF:13:1,2008-01-19T02:00:00Z,26.5255,-82.0032,3.0,1111122 
SCCF RECON,ioos:station:SCCF:13:1,2008-01-19T03:00:00Z,26.5255,-82.0032,2.83,1111122 
SCCF RECON,ioos:station:SCCF:13:1,2008-01-19T04:00:00Z,26.5255,-82.0032,2.68,1111122 
SCCF RECON,ioos:station:SCCF:13:1,2008-01-19T05:00:00Z,26.5255,-82.0032,2.58,1111122 
SCCF RECON,ioos:station:SCCF:13:1,2008-01-19T06:00:00Z,26.5255,-82.0032,2.72,1111122 
SCCF RECON,ioos:station:SCCF:13:1,2008-01-19T07:00:00Z,26.5255,-82.0032,3.06,1111122 
SCCF RECON,ioos:station:SCCF:13:1,2008-01-19T08:00:00Z,26.5255,-82.0032,3.2,1111122 
SCCF RECON,ioos:station:SCCF:13:1,2008-01-19T09:00:00Z,26.5255,-82.0032,3.17,1111122 
SCCF RECON,ioos:station:SCCF:13:1,2008-01-19T10:00:00Z,26.5255,-82.0032,2.98,1111122 
SCCF RECON,ioos:station:SCCF:13:1,2008-01-19T11:00:00Z,26.5255,-82.0032,2.98,1111122 
SCCF RECON,ioos:station:SCCF:13:1,2008-01-19T12:00:00Z,26.5255,-82.0032,2.86,1111122 
SCCF RECON,ioos:station:SCCF:13:1,2008-01-19T13:00:00Z,26.5255,-82.0032,2.83,1111122 
SCCF RECON,ioos:station:SCCF:13:1,2008-01-19T14:00:00Z,26.5255,-82.0032,2.8,1111122 
SCCF RECON,ioos:station:SCCF:13:1,2008-01-19T15:00:00Z,26.5255,-82.0032,3.01,1111122 
SCCF RECON,ioos:station:SCCF:13:1,2008-01-19T16:00:00Z,26.5255,-82.0032,3.12,1111122 
SCCF RECON,ioos:station:SCCF:13:1,2008-01-19T17:00:00Z,26.5255,-82.0032,3.66,1111122 
SCCF RECON,ioos:station:SCCF:13:1,2008-01-19T18:00:00Z,26.5255,-82.0032,3.31,1111122 
SCCF RECON,ioos:station:SCCF:13:1,2008-01-19T19:00:00Z,26.5255,-82.0032,3.29,1111122 
SCCF RECON,ioos:station:SCCF:13:1,2008-01-19T20:00:00Z,26.5255,-82.0032,3.03,1111122 
SCCF RECON,ioos:station:SCCF:13:1,2008-01-19T21:00:00Z,26.5255,-82.0032,2.74,1111122 
SCCF RECON,ioos:station:SCCF:13:1,2008-01-19T22:00:00Z,26.5255,-82.0032,2.95,1111122 
SCCF RECON,ioos:station:SCCF:13:1,2008-01-19T23:00:00Z,26.5255,-82.0032,2.88,1111122 
SCCF RECON,ioos:station:SCCF:13:1,2008-01-20T00:00:00Z,26.5255,-82.0032,2.79,1111122 
SCCF RECON,ioos:station:SCCF:13:1,2008-01-20T01:00:00Z,26.5255,-82.0032,2.7,1111122 
SCCF RECON,ioos:station:SCCF:13:1,2008-01-20T02:00:00Z,26.5255,-82.0032,2.83,1111122 
SCCF RECON,ioos:station:SCCF:13:1,2008-01-20T07:00:00Z,26.5255,-82.0032,2.93,1111122 
SCCF RECON,ioos:station:SCCF:13:1,2008-01-20T08:00:00Z,26.5255,-82.0032,3.19,1111122 
SCCF RECON,ioos:station:SCCF:13:1,2008-01-20T09:00:00Z,26.5255,-82.0032,3.53,1111122 
SCCF RECON,ioos:station:SCCF:13:1,2008-01-20T10:00:00Z,26.5255,-82.0032,4.41,1111122 
SCCF RECON,ioos:station:SCCF:13:1,2008-01-20T11:00:00Z,26.5255,-82.0032,5.23,1111122 
SCCF RECON,ioos:station:SCCF:13:1,2008-01-20T13:00:00Z,26.5255,-82.0032,6.21,1111122 
SCCF RECON,ioos:station:SCCF:13:1,2008-01-20T14:00:00Z,26.5255,-82.0032,6.37,1111122 
SCCF RECON,ioos:station:SCCF:13:1,2008-01-20T15:00:00Z,26.5255,-82.0032,6.92,1111122 
SCCF RECON,ioos:station:SCCF:13:1,2008-01-20T16:00:00Z,26.5255,-82.0032,6.36,1111122 
SCCF RECON,ioos:station:SCCF:13:1,2008-01-20T17:00:00Z,26.5255,-82.0032,6.09,1111122 
SCCF RECON,ioos:station:SCCF:13:1,2008-01-20T18:00:00Z,26.5255,-82.0032,6.55,1111122 
SCCF RECON,ioos:station:SCCF:13:1,2008-01-20T19:00:00Z,26.5255,-82.0032,5.56,1111122 
SCCF RECON,ioos:station:SCCF:13:1,2008-01-20T20:00:00Z,26.5255,-82.0032,5.2,1111122 
SCCF RECON,ioos:station:SCCF:13:1,2008-01-20T21:00:00Z,26.5255,-82.0032,4.38,1111122 
SCCF RECON,ioos:station:SCCF:13:1,2008-01-20T22:00:00Z,26.5255,-82.0032,3.98,1111122 
SCCF RECON,ioos:station:SCCF:13:1,2008-01-20T23:00:00Z,26.5255,-82.0032,3.71,1111122 
SCCF RECON,ioos:station:SCCF:13:1,2008-01-21T00:00:00Z,26.5255,-82.0032,3.65,1111122 
SCCF RECON,ioos:station:SCCF:13:1,2008-01-21T01:00:00Z,26.5255,-82.0032,2.96,1111122 
SCCF RECON,ioos:station:SCCF:13:1,2008-01-21T02:00:00Z,26.5255,-82.0032,3.63,1111122 
SCCF RECON,ioos:station:SCCF:13:1,2008-01-21T03:00:00Z,26.5255,-82.0032,3.72,1111122 
SCCF RECON,ioos:station:SCCF:13:1,2008-01-21T04:00:00Z,26.5255,-82.0032,3.94,1111122 
SCCF RECON,ioos:station:SCCF:13:1,2008-01-21T05:00:00Z,26.5255,-82.0032,2.88,1111122 
SCCF RECON,ioos:station:SCCF:13:1,2008-01-21T06:00:00Z,26.5255,-82.0032,3.69,1111122 
SCCF RECON,ioos:station:SCCF:13:1,2008-01-21T07:00:00Z,26.5255,-82.0032,3.47,1111122 
SCCF RECON,ioos:station:SCCF:13:1,2008-01-21T08:00:00Z,26.5255,-82.0032,3.18,1111122 
SCCF RECON,ioos:station:SCCF:13:1,2008-01-21T09:00:00Z,26.5255,-82.0032,5.4,1111122 
SCCF RECON,ioos:station:SCCF:13:1,2008-01-21T11:00:00Z,26.5255,-82.0032,4.51,1111122 
SCCF RECON,ioos:station:SCCF:13:1,2008-01-21T14:00:00Z,26.5255,-82.0032,6.09,1111122 
SCCF RECON,ioos:station:SCCF:13:1,2008-01-21T15:00:00Z,26.5255,-82.0032,4.01,1111122 
SCCF RECON,ioos:station:SCCF:13:1,2008-01-21T16:00:00Z,26.5255,-82.0032,3.81,1111122 
SCCF RECON,ioos:station:SCCF:13:1,2008-01-21T17:00:00Z,26.5255,-82.0032,3.93,1111122 
SCCF RECON,ioos:station:SCCF:13:1,2008-01-21T18:00:00Z,26.5255,-82.0032,3.67,1111122 
SCCF RECON,ioos:station:SCCF:13:1,2008-01-21T19:00:00Z,26.5255,-82.0032,3.24,1111122 
SCCF RECON,ioos:station:SCCF:13:1,2008-01-21T20:00:00Z,26.5255,-82.0032,2.69,1111122 
SCCF RECON,ioos:station:SCCF:13:1,2008-01-21T21:00:00Z,26.5255,-82.0032,2.47,1111122 
SCCF RECON,ioos:station:SCCF:13:1,2008-01-21T22:00:00Z,26.5255,-82.0032,2.67,1111122 
SCCF RECON,ioos:station:SCCF:13:1,2008-01-22T02:00:00Z,26.5255,-82.0032,2.55,1111122 
SCCF RECON,ioos:station:SCCF:13:1,2008-01-22T03:00:00Z,26.5255,-82.0032,-9999.0,1111122 
SCCF RECON,ioos:station:SCCF:13:1,2008-01-22T04:00:00Z,26.5255,-82.0032,-9999.0,1111122 
SCCF RECON,ioos:station:SCCF:13:1,2008-01-22T05:00:00Z,26.5255,-82.0032,-9999.0,1111122 
SCCF RECON,ioos:station:SCCF:13:1,2008-01-22T06:00:00Z,26.5255,-82.0032,-9999.0,1111122 
SCCF RECON,ioos:station:SCCF:13:1,2008-01-22T07:00:00Z,26.5255,-82.0032,-9999.0,1111122 
SCCF RECON,ioos:station:SCCF:13:1,2008-01-22T08:00:00Z,26.5255,-82.0032,-9999.0,1111122 
SCCF RECON,ioos:station:SCCF:13:1,2008-01-22T09:00:00Z,26.5255,-82.0032,3.42,1111122 
SCCF RECON,ioos:station:SCCF:13:1,2008-01-22T10:00:00Z,26.5255,-82.0032,3.27,1111122 
SCCF RECON,ioos:station:SCCF:13:1,2008-01-22T11:00:00Z,26.5255,-82.0032,3.44,1111122 
SCCF RECON,ioos:station:SCCF:13:1,2008-01-22T12:00:00Z,26.5255,-82.0032,3.59,1111122 
SCCF RECON,ioos:station:SCCF:13:1,2008-01-22T13:00:00Z,26.5255,-82.0032,3.81,1111122 
SCCF RECON,ioos:station:SCCF:13:1,2008-01-22T14:00:00Z,26.5255,-82.0032,3.58,1111122 
SCCF RECON,ioos:station:SCCF:13:1,2008-01-22T15:00:00Z,26.5255,-82.0032,3.36,1111122 
SCCF RECON,ioos:station:SCCF:13:1,2008-01-22T16:00:00Z,26.5255,-82.0032,4.68,1111122 
SCCF RECON,ioos:station:SCCF:13:1,2008-01-22T17:00:00Z,26.5255,-82.0032,3.58,1111122 
SCCF RECON,ioos:station:SCCF:13:1,2008-01-22T18:00:00Z,26.5255,-82.0032,3.34,1111122 
SCCF RECON,ioos:station:SCCF:13:1,2008-01-22T19:00:00Z,26.5255,-82.0032,3.77,1111122 
SCCF RECON,ioos:station:SCCF:13:1,2008-01-22T20:00:00Z,26.5255,-82.0032,4.27,1111122 
SCCF RECON,ioos:station:SCCF:13:1,2008-01-22T21:00:00Z,26.5255,-82.0032,3.98,1111122 
SCCF RECON,ioos:station:SCCF:13:1,2008-01-22T22:00:00Z,26.5255,-82.0032,3.68,1111122 
SCCF RECON,ioos:station:SCCF:13:1,2008-01-22T23:00:00Z,26.5255,-82.0032,3.48,1111122 
SCCF RECON,ioos:station:SCCF:13:1,2008-01-23T01:00:00Z,26.5255,-82.0032,2.71,1111122 
SCCF RECON,ioos:station:SCCF:13:1,2008-01-23T02:00:00Z,26.5255,-82.0032,2.74,1111122 
SCCF RECON,ioos:station:SCCF:13:1,2008-01-23T03:00:00Z,26.5255,-82.0032,3.18,1111122 
SCCF RECON,ioos:station:SCCF:13:1,2008-01-23T04:00:00Z,26.5255,-82.0032,3.55,1111122 
SCCF RECON,ioos:station:SCCF:13:1,2008-01-23T05:00:00Z,26.5255,-82.0032,3.11,1111122 
SCCF RECON,ioos:station:SCCF:13:1,2008-01-23T06:00:00Z,26.5255,-82.0032,2.98,1111122 
SCCF RECON,ioos:station:SCCF:13:1,2008-01-23T07:00:00Z,26.5255,-82.0032,2.88,1111122 
SCCF RECON,ioos:station:SCCF:13:1,2008-01-23T08:00:00Z,26.5255,-82.0032,2.97,1111122 
SCCF RECON,ioos:station:SCCF:13:1,2008-01-23T09:00:00Z,26.5255,-82.0032,2.76,1111122 
SCCF RECON,ioos:station:SCCF:13:1,2008-01-23T10:00:00Z,26.5255,-82.0032,2.96,1111122 
SCCF RECON,ioos:station:SCCF:13:1,2008-01-23T11:00:00Z,26.5255,-82.0032,3.46,1111122 
SCCF RECON,ioos:station:SCCF:13:1,2008-01-23T12:00:00Z,26.5255,-82.0032,3.71,1111122 
SCCF RECON,ioos:station:SCCF:13:1,2008-01-23T13:00:00Z,26.5255,-82.0032,4.18,1111122 
SCCF RECON,ioos:station:SCCF:13:1,2008-01-23T14:00:00Z,26.5255,-82.0032,4.29,1111122 
SCCF RECON,ioos:station:SCCF:13:1,2008-01-23T15:00:00Z,26.5255,-82.0032,4.11,1111122 
SCCF RECON,ioos:station:SCCF:13:1,2008-01-23T16:00:00Z,26.5255,-82.0032,3.69,1111122 
SCCF RECON,ioos:station:SCCF:13:1,2008-01-23T17:00:00Z,26.5255,-82.0032,3.09,1111122 
SCCF RECON,ioos:station:SCCF:13:1,2008-01-23T18:00:00Z,26.5255,-82.0032,3.39,1111122 
SCCF RECON,ioos:station:SCCF:13:1,2008-01-23T19:00:00Z,26.5255,-82.0032,3.62,1111122 
SCCF RECON,ioos:station:SCCF:13:1,2008-01-23T20:00:00Z,26.5255,-82.0032,3.17,1111122 
SCCF RECON,ioos:station:SCCF:13:1,2008-01-23T21:00:00Z,26.5255,-82.0032,3.24,1111122 
SCCF RECON,ioos:station:SCCF:13:1,2008-01-23T22:00:00Z,26.5255,-82.0032,2.96,1111122 
SCCF RECON,ioos:station:SCCF:13:1,2008-01-23T23:00:00Z,26.5255,-82.0032,6.31,1111122 
SCCF RECON,ioos:station:SCCF:13:1,2008-01-24T00:00:00Z,26.5255,-82.0032,2.68,1111122 
SCCF RECON,ioos:station:SCCF:13:1,2008-01-24T01:00:00Z,26.5255,-82.0032,2.81,1111122 
SCCF RECON,ioos:station:SCCF:13:1,2008-01-24T02:00:00Z,26.5255,-82.0032,2.67,1111122 
SCCF RECON,ioos:station:SCCF:13:1,2008-01-24T03:00:00Z,26.5255,-82.0032,2.68,1111122 
SCCF RECON,ioos:station:SCCF:13:1,2008-01-24T04:00:00Z,26.5255,-82.0032,2.68,1111122 
SCCF RECON,ioos:station:SCCF:13:1,2008-01-24T05:00:00Z,26.5255,-82.0032,2.06,1111122 
SCCF RECON,ioos:station:SCCF:13:1,2008-01-24T06:00:00Z,26.5255,-82.0032,2.4,1111122 
SCCF RECON,ioos:station:SCCF:13:1,2008-01-24T07:00:00Z,26.5255,-82.0032,2.05,1111122 
SCCF RECON,ioos:station:SCCF:13:1,2008-01-24T08:00:00Z,26.5255,-82.0032,2.81,1111122 
SCCF RECON,ioos:station:SCCF:13:1,2008-01-24T09:00:00Z,26.5255,-82.0032,2.63,1111122 
SCCF RECON,ioos:station:SCCF:13:1,2008-01-24T11:00:00Z,26.5255,-82.0032,2.81,1111122 
SCCF RECON,ioos:station:SCCF:13:1,2008-01-24T12:00:00Z,26.5255,-82.0032,3.16,1111122 
SCCF RECON,ioos:station:SCCF:13:1,2008-01-24T13:00:00Z,26.5255,-82.0032,3.71,1111122 
SCCF RECON,ioos:station:SCCF:13:1,2008-01-24T14:00:00Z,26.5255,-82.0032,3.74,1111122 
SCCF RECON,ioos:station:SCCF:13:1,2008-01-24T15:00:00Z,26.5255,-82.0032,3.72,1111122 
SCCF RECON,ioos:station:SCCF:13:1,2008-01-24T16:00:00Z,26.5255,-82.0032,3.31,1111122 
SCCF RECON,ioos:station:SCCF:13:1,2008-01-24T17:00:00Z,26.5255,-82.0032,3.31,1111122 
SCCF RECON,ioos:station:SCCF:13:1,2008-01-24T18:00:00Z,26.5255,-82.0032,3.03,1111122 
SCCF RECON,ioos:station:SCCF:13:1,2008-01-24T19:00:00Z,26.5255,-82.0032,2.8,1111122 
SCCF RECON,ioos:station:SCCF:13:1,2008-01-24T20:00:00Z,26.5255,-82.0032,3.1,1111122 
SCCF RECON,ioos:station:SCCF:13:1,2008-01-24T21:00:00Z,26.5255,-82.0032,3.02,1111122 
SCCF RECON,ioos:station:SCCF:13:1,2008-01-24T22:00:00Z,26.5255,-82.0032,2.6,1111122 
SCCF RECON,ioos:station:SCCF:13:1,2008-01-24T23:00:00Z,26.5255,-82.0032,2.8,1111122 
SCCF RECON,ioos:station:SCCF:13:1,2008-01-25T00:00:00Z,26.5255,-82.0032,2.61,1111122 
SCCF RECON,ioos:station:SCCF:13:1,2008-01-25T01:00:00Z,26.5255,-82.0032,2.82,1111122 
SCCF RECON,ioos:station:SCCF:13:1,2008-01-25T02:00:00Z,26.5255,-82.0032,2.66,1111122 
SCCF RECON,ioos:station:SCCF:13:1,2008-01-25T03:00:00Z,26.5255,-82.0032,2.6,1111122 
SCCF RECON,ioos:station:SCCF:13:1,2008-01-25T04:00:00Z,26.5255,-82.0032,2.58,1111122 
SCCF RECON,ioos:station:SCCF:13:1,2008-01-25T05:00:00Z,26.5255,-82.0032,2.47,1111122 
SCCF RECON,ioos:station:SCCF:13:1,2008-01-25T06:00:00Z,26.5255,-82.0032,2.79,1111122 
SCCF RECON,ioos:station:SCCF:13:1,2008-01-25T07:00:00Z,26.5255,-82.0032,2.94,1111122 
SCCF RECON,ioos:station:SCCF:13:1,2008-01-25T08:00:00Z,26.5255,-82.0032,2.27,1111122 
SCCF RECON,ioos:station:SCCF:13:1,2008-01-25T09:00:00Z,26.5255,-82.0032,14.71,1111122 
SCCF RECON,ioos:station:SCCF:13:1,2008-01-25T10:00:00Z,26.5255,-82.0032,10.42,1111122 
SCCF RECON,ioos:station:SCCF:13:1,2008-01-25T11:00:00Z,26.5255,-82.0032,2.55,1111122 
SCCF RECON,ioos:station:SCCF:13:1,2008-01-25T12:00:00Z,26.5255,-82.0032,2.94,1111122 
SCCF RECON,ioos:station:SCCF:13:1,2008-01-25T13:00:00Z,26.5255,-82.0032,3.69,1111122 
SCCF RECON,ioos:station:SCCF:13:1,2008-01-25T14:00:00Z,26.5255,-82.0032,4.46,1111122 
SCCF RECON,ioos:station:SCCF:13:1,2008-01-25T15:00:00Z,26.5255,-82.0032,5.12,1111122 
SCCF RECON,ioos:station:SCCF:13:1,2008-01-25T16:00:00Z,26.5255,-82.0032,4.96,1111122 
SCCF RECON,ioos:station:SCCF:13:1,2008-01-25T17:00:00Z,26.5255,-82.0032,4.17,1111122 
SCCF RECON,ioos:station:SCCF:13:1,2008-01-25T18:00:00Z,26.5255,-82.0032,3.72,1111122 
SCCF RECON,ioos:station:SCCF:13:1,2008-01-25T19:00:00Z,26.5255,-82.0032,3.31,1111122 
SCCF RECON,ioos:station:SCCF:13:1,2008-01-25T20:00:00Z,26.5255,-82.0032,3.81,1111122 
SCCF RECON,ioos:station:SCCF:13:1,2008-01-25T21:00:00Z,26.5255,-82.0032,3.82,1111122 
SCCF RECON,ioos:station:SCCF:13:1,2008-01-25T22:00:00Z,26.5255,-82.0032,3.42,1111122 
SCCF RECON,ioos:station:SCCF:13:1,2008-01-25T23:00:00Z,26.5255,-82.0032,2.96,1111122 
SCCF RECON,ioos:station:SCCF:13:1,2008-01-26T00:00:00Z,26.5255,-82.0032,2.9,1111122 
SCCF RECON,ioos:station:SCCF:13:1,2008-01-26T01:00:00Z,26.5255,-82.0032,2.63,1111122 
SCCF RECON,ioos:station:SCCF:13:1,2008-01-26T02:00:00Z,26.5255,-82.0032,3.21,1111122 
SCCF RECON,ioos:station:SCCF:13:1,2008-01-26T03:00:00Z,26.5255,-82.0032,2.87,1111122 
SCCF RECON,ioos:station:SCCF:13:1,2008-01-26T04:00:00Z,26.5255,-82.0032,2.86,1111122 
SCCF RECON,ioos:station:SCCF:13:1,2008-01-26T05:00:00Z,26.5255,-82.0032,15.54,1111122 
SCCF RECON,ioos:station:SCCF:13:1,2008-01-26T06:00:00Z,26.5255,-82.0032,3.09,1111122 
SCCF RECON,ioos:station:SCCF:13:1,2008-01-26T07:00:00Z,26.5255,-82.0032,2.59,1111122 
SCCF RECON,ioos:station:SCCF:13:1,2008-01-26T08:00:00Z,26.5255,-82.0032,3.06,1111122 
SCCF RECON,ioos:station:SCCF:13:1,2008-01-26T09:00:00Z,26.5255,-82.0032,2.77,1111122 
SCCF RECON,ioos:station:SCCF:13:1,2008-01-26T10:00:00Z,26.5255,-82.0032,2.63,1111122 
SCCF RECON,ioos:station:SCCF:13:1,2008-01-26T11:00:00Z,26.5255,-82.0032,2.41,1111122 
SCCF RECON,ioos:station:SCCF:13:1,2008-01-26T12:00:00Z,26.5255,-82.0032,2.34,1111122 
SCCF RECON,ioos:station:SCCF:13:1,2008-01-26T13:00:00Z,26.5255,-82.0032,2.54,1111122 
SCCF RECON,ioos:station:SCCF:13:1,2008-01-26T14:00:00Z,26.5255,-82.0032,2.93,1111122 
SCCF RECON,ioos:station:SCCF:13:1,2008-01-26T15:00:00Z,26.5255,-82.0032,2.9,1111122 
SCCF RECON,ioos:station:SCCF:13:1,2008-01-26T16:00:00Z,26.5255,-82.0032,2.64,1111122 
SCCF RECON,ioos:station:SCCF:13:1,2008-01-26T17:00:00Z,26.5255,-82.0032,3.18,1111122 
SCCF RECON,ioos:station:SCCF:13:1,2008-01-26T18:00:00Z,26.5255,-82.0032,3.19,1111122 
SCCF RECON,ioos:station:SCCF:13:1,2008-01-26T19:00:00Z,26.5255,-82.0032,2.27,1111122 
SCCF RECON,ioos:station:SCCF:13:1,2008-01-26T20:00:00Z,26.5255,-82.0032,2.65,1111122 
SCCF RECON,ioos:station:SCCF:13:1,2008-01-26T21:00:00Z,26.5255,-82.0032,2.87,1111122 
SCCF RECON,ioos:station:SCCF:13:1,2008-01-26T22:00:00Z,26.5255,-82.0032,3.06,1111122 
SCCF RECON,ioos:station:SCCF:13:1,2008-01-26T23:00:00Z,26.5255,-82.0032,2.83,1111122 
SCCF RECON,ioos:station:SCCF:13:1,2008-01-27T00:00:00Z,26.5255,-82.0032,2.86,1111122 
SCCF RECON,ioos:station:SCCF:13:1,2008-01-27T03:00:00Z,26.5255,-82.0032,2.49,1111122 
SCCF RECON,ioos:station:SCCF:13:1,2008-01-27T04:00:00Z,26.5255,-82.0032,2.59,1111122 
SCCF RECON,ioos:station:SCCF:13:1,2008-01-27T05:00:00Z,26.5255,-82.0032,2.72,1111122 
SCCF RECON,ioos:station:SCCF:13:1,2008-01-27T06:00:00Z,26.5255,-82.0032,2.49,1111122 
SCCF RECON,ioos:station:SCCF:13:1,2008-01-27T07:00:00Z,26.5255,-82.0032,2.25,1111122 
SCCF RECON,ioos:station:SCCF:13:1,2008-01-27T08:00:00Z,26.5255,-82.0032,1.63,1111122 
SCCF RECON,ioos:station:SCCF:13:1,2008-01-27T09:00:00Z,26.5255,-82.0032,1.73,1111122 
SCCF RECON,ioos:station:SCCF:13:1,2008-01-27T10:00:00Z,26.5255,-82.0032,1.55,1111122 
SCCF RECON,ioos:station:SCCF:13:1,2008-01-27T11:00:00Z,26.5255,-82.0032,2.53,1111122 
SCCF RECON,ioos:station:SCCF:13:1,2008-01-27T12:00:00Z,26.5255,-82.0032,2.55,1111122 
SCCF RECON,ioos:station:SCCF:13:1,2008-01-27T13:00:00Z,26.5255,-82.0032,2.29,1111122 
SCCF RECON,ioos:station:SCCF:13:1,2008-01-27T14:00:00Z,26.5255,-82.0032,2.52,1111122 
SCCF RECON,ioos:station:SCCF:13:1,2008-01-27T15:00:00Z,26.5255,-82.0032,2.77,1111122 
SCCF RECON,ioos:station:SCCF:13:1,2008-01-27T16:00:00Z,26.5255,-82.0032,3.1,1111122 
SCCF RECON,ioos:station:SCCF:13:1,2008-01-27T17:00:00Z,26.5255,-82.0032,3.27,1111122 
SCCF RECON,ioos:station:SCCF:13:1,2008-01-27T18:00:00Z,26.5255,-82.0032,3.2,1111122 
SCCF RECON,ioos:station:SCCF:13:1,2008-01-27T19:00:00Z,26.5255,-82.0032,3.22,1111122 
SCCF RECON,ioos:station:SCCF:13:1,2008-01-27T20:00:00Z,26.5255,-82.0032,2.88,1111122 
SCCF RECON,ioos:station:SCCF:13:1,2008-01-27T21:00:00Z,26.5255,-82.0032,2.84,1111122 
SCCF RECON,ioos:station:SCCF:13:1,2008-01-27T22:00:00Z,26.5255,-82.0032,2.93,1111122 
SCCF RECON,ioos:station:SCCF:13:1,2008-01-27T23:00:00Z,26.5255,-82.0032,2.78,1111122 
SCCF RECON,ioos:station:SCCF:13:1,2008-01-28T00:00:00Z,26.5255,-82.0032,2.61,1111122 
SCCF RECON,ioos:station:SCCF:13:1,2008-01-28T01:00:00Z,26.5255,-82.0032,2.47,1111122 
SCCF RECON,ioos:station:SCCF:13:1,2008-01-28T02:00:00Z,26.5255,-82.0032,2.6,1111122 
SCCF RECON,ioos:station:SCCF:13:1,2008-01-28T03:00:00Z,26.5255,-82.0032,2.59,1111122 
SCCF RECON,ioos:station:SCCF:13:1,2008-01-28T04:00:00Z,26.5255,-82.0032,2.64,1111122 
SCCF RECON,ioos:station:SCCF:13:1,2008-01-28T05:00:00Z,26.5255,-82.0032,2.71,1111122 
SCCF RECON,ioos:station:SCCF:13:1,2008-01-28T06:00:00Z,26.5255,-82.0032,2.58,1111122 
SCCF RECON,ioos:station:SCCF:13:1,2008-01-28T07:00:00Z,26.5255,-82.0032,2.46,1111122 
SCCF RECON,ioos:station:SCCF:13:1,2008-01-28T08:00:00Z,26.5255,-82.0032,5.35,1111122 
SCCF RECON,ioos:station:SCCF:13:1,2008-01-28T10:00:00Z,26.5255,-82.0032,1.87,1111122 
SCCF RECON,ioos:station:SCCF:13:1,2008-01-28T11:00:00Z,26.5255,-82.0032,1.75,1111122 
SCCF RECON,ioos:station:SCCF:13:1,2008-01-28T12:00:00Z,26.5255,-82.0032,2.1,1111122 
SCCF RECON,ioos:station:SCCF:13:1,2008-01-28T13:00:00Z,26.5255,-82.0032,2.36,1111122 
SCCF RECON,ioos:station:SCCF:13:1,2008-01-28T14:00:00Z,26.5255,-82.0032,2.32,1111122 
SCCF RECON,ioos:station:SCCF:13:1,2008-01-28T15:00:00Z,26.5255,-82.0032,2.43,1111122 
SCCF RECON,ioos:station:SCCF:13:1,2008-01-28T16:00:00Z,26.5255,-82.0032,2.51,1111122 
SCCF RECON,ioos:station:SCCF:13:1,2008-01-28T17:00:00Z,26.5255,-82.0032,2.67,1111122 
SCCF RECON,ioos:station:SCCF:13:1,2008-01-28T18:00:00Z,26.5255,-82.0032,2.35,1111122 
SCCF RECON,ioos:station:SCCF:13:1,2008-01-28T19:00:00Z,26.5255,-82.0032,2.1,1111122 
SCCF RECON,ioos:station:SCCF:13:1,2008-01-28T20:00:00Z,26.5255,-82.0032,2.39,1111122 
SCCF RECON,ioos:station:SCCF:13:1,2008-01-28T21:00:00Z,26.5255,-82.0032,2.95,1111122 
SCCF RECON,ioos:station:SCCF:13:1,2008-01-28T22:00:00Z,26.5255,-82.0032,3.39,1111122 
SCCF RECON,ioos:station:SCCF:13:1,2008-01-28T23:00:00Z,26.5255,-82.0032,4.32,1111122 
SCCF RECON,ioos:station:SCCF:13:1,2008-01-29T00:00:00Z,26.5255,-82.0032,5.27,1111122 
SCCF RECON,ioos:station:SCCF:13:1,2008-01-29T01:00:00Z,26.5255,-82.0032,5.28,1111122 
SCCF RECON,ioos:station:SCCF:13:1,2008-01-29T02:00:00Z,26.5255,-82.0032,2.2,1111122 
SCCF RECON,ioos:station:SCCF:13:1,2008-01-29T03:00:00Z,26.5255,-82.0032,2.28,1111122 